When you browse on this site, cookies collect data to enhance your experience and personalize the content and advertising you see.
Visit our Privacy Policy to learn more. By continuing to use the site, you agree to this use of cookies and data.
  • In Latvia
  • List of Countries
  • For 7 days
  • Water Temperature
  • Weather Map
  • Weather Widgets
  • user-avatar
    Login

    Hourly Weather Newark

    Today, 26 May, Tuesday

    Time Temperature Precipitation Wind Pressure Humidity
    00:00 +18°C° 0 mm 1 mps 765 mmHg 87%
    01:00 +16°C° 0 mm 1 mps 765 mmHg 89%
    02:00 +15°C° 0 mm 0 mps 765 mmHg 90%
    03:00 +15°C° 0 mm 0 mps 765 mmHg 91%
    04:00 +15°C° 0 mm 0 mps 765 mmHg 92%
    05:00 +16°C° 0 mm 0 mps 765 mmHg 88%
    06:00 +17°C° 0 mm 0 mps 765 mmHg 84%
    07:00 +18°C° 0 mm 0 mps 766 mmHg 81%
    08:00 +22°C° 0 mm 1 mps 766 mmHg 73%
    09:00 +24°C° 0 mm 1 mps 766 mmHg 66%
    10:00 +26°C° 0 mm 1 mps 766 mmHg 59%
    11:00 +26°C° 0 mm 2 mps 765 mmHg 56%
    12:00 +27°C° 0 mm 3 mps 765 mmHg 54%
    13:00 +28°C° 0 mm 4 mps 765 mmHg 52%
    14:00 +27°C° 0 mm 4 mps 765 mmHg 54%
    15:00 +27°C° 0 mm 4 mps 764 mmHg 56%
    16:00 +26°C° 0 mm 4 mps 764 mmHg 58%
    17:00 +25°C° 0 mm 4 mps 764 mmHg 63%
    18:00 +22°C° 0 mm 3 mps 764 mmHg 67%
    19:00 +21°C° 0 mm 3 mps 765 mmHg 72%
    20:00 +20°C° 0 mm 3 mps 765 mmHg 75%
    21:00 +20°C° 0 mm 2 mps 765 mmHg 77%
    22:00 +19°C° 0 mm 2 mps 766 mmHg 80%
    23:00 +19°C° 0 mm 2 mps 766 mmHg 82%

    Tomorrow, 27 May, Wednesday

    Time Temperature Precipitation Wind Pressure Humidity
    00:00 +20°C° 0 mm 1 mps 766 mmHg 84%
    01:00 +19°C° 0 mm 1 mps 766 mmHg 85%
    02:00 +19°C° 0 mm 1 mps 766 mmHg 87%
    03:00 +19°C° 0 mm 1 mps 766 mmHg 88%
    04:00 +19°C° 0 mm 1 mps 766 mmHg 89%
    05:00 +19°C° 0 mm 1 mps 766 mmHg 85%
    06:00 +20°C° 0 mm 1 mps 766 mmHg 81%
    07:00 +21°C° 0 mm 1 mps 767 mmHg 78%
    08:00 +23°C° 0 mm 2 mps 767 mmHg 72%
    09:00 +24°C° 0 mm 2 mps 766 mmHg 66%
    10:00 +25°C° 0 mm 3 mps 766 mmHg 60%
    11:00 +26°C° 0 mm 3 mps 766 mmHg 60%
    12:00 +26°C° 0 mm 4 mps 766 mmHg 59%
    13:00 +27°C° 0 mm 4 mps 766 mmHg 59%
    14:00 +26°C° 0 mm 4 mps 766 mmHg 59%
    15:00 +26°C° 0 mm 4 mps 765 mmHg 60%
    16:00 +26°C° 0 mm 4 mps 765 mmHg 61%
    17:00 +25°C° 0 mm 4 mps 765 mmHg 67%
    18:00 +23°C° 0 mm 4 mps 766 mmHg 74%
    19:00 +22°C° 0 mm 4 mps 766 mmHg 80%
    20:00 +22°C° 0 mm 3 mps 766 mmHg 83%
    21:00 +21°C° 0 mm 3 mps 766 mmHg 86%
    22:00 +21°C° 0 mm 3 mps 766 mmHg 89%
    23:00 +20°C° 0 mm 3 mps 766 mmHg 89%

    Day after tomorrow, 28 May, Thursday

    Time Temperature Precipitation Wind Pressure Humidity
    00:00 +20°C° 0 mm 3 mps 766 mmHg 88%
    01:00 +20°C° 0 mm 2 mps 766 mmHg 88%
    02:00 +20°C° 0 mm 2 mps 766 mmHg 89%
    03:00 +19°C° 0 mm 2 mps 766 mmHg 90%
    04:00 +19°C° 0 mm 2 mps 766 mmHg 91%
    05:00 +19°C° 0 mm 2 mps 766 mmHg 90%
    06:00 +20°C° 0 mm 2 mps 766 mmHg 89%
    07:00 +20°C° 0 mm 3 mps 766 mmHg 87%
    08:00 +20°C° 0 mm 3 mps 766 mmHg 87%
    09:00 +20°C° 0 mm 3 mps 766 mmHg 88%
    10:00 +20°C° 0 mm 3 mps 766 mmHg 88%
    11:00 +20°C° 0 mm 3 mps 766 mmHg 87%
    12:00 +21°C° 0 mm 3 mps 765 mmHg 85%
    13:00 +21°C° 0 mm 4 mps 765 mmHg 84%
    14:00 +21°C° 0.2 mm 4 mps 765 mmHg 84%
    15:00 +22°C° 0.2 mm 4 mps 764 mmHg 84%
    16:00 +22°C° 0.2 mm 4 mps 764 mmHg 83%
    17:00 +22°C° 0 mm 4 mps 764 mmHg 84%
    18:00 +21°C° 0 mm 4 mps 764 mmHg 84%
    19:00 +21°C° 0 mm 4 mps 764 mmHg 84%
    20:00 +21°C° 0 mm 4 mps 763 mmHg 86%
    21:00 +21°C° 0 mm 4 mps 763 mmHg 88%
    22:00 +21°C° 0 mm 4 mps 763 mmHg 90%
    23:00 +21°C° 0 mm 4 mps 763 mmHg 90%

    29 May, Friday

    Time Temperature Precipitation Wind Pressure Humidity
    00:00 +21°C° 0 mm 4 mps 763 mmHg 91%
    01:00 +21°C° 0 mm 3 mps 762 mmHg 91%
    02:00 +21°C° 0.1 mm 3 mps 762 mmHg 92%
    03:00 +21°C° 0.1 mm 3 mps 762 mmHg 93%
    04:00 +21°C° 0.1 mm 3 mps 762 mmHg 93%
    05:00 +21°C° 0.1 mm 3 mps 762 mmHg 93%
    06:00 +22°C° 0.1 mm 4 mps 762 mmHg 92%
    07:00 +22°C° 0.1 mm 4 mps 762 mmHg 92%
    08:00 +23°C° 0 mm 4 mps 761 mmHg 87%
    09:00 +25°C° 0 mm 4 mps 761 mmHg 82%
    10:00 +26°C° 0 mm 4 mps 761 mmHg 76%
    11:00 +26°C° 0 mm 4 mps 761 mmHg 76%
    12:00 +26°C° 0 mm 4 mps 760 mmHg 75%
    13:00 +27°C° 0 mm 4 mps 760 mmHg 74%
    14:00 +27°C° 0.1 mm 4 mps 759 mmHg 72%
    15:00 +28°C° 0.1 mm 4 mps 759 mmHg 70%
    16:00 +28°C° 0.1 mm 4 mps 759 mmHg 67%
    17:00 +27°C° 0.4 mm 4 mps 758 mmHg 70%
    18:00 +27°C° 0.4 mm 4 mps 758 mmHg 73%
    19:00 +26°C° 0.4 mm 5 mps 758 mmHg 76%
    20:00 +26°C° 0.4 mm 4 mps 758 mmHg 79%
    21:00 +25°C° 0.4 mm 4 mps 758 mmHg 81%
    22:00 +25°C° 0.4 mm 4 mps 758 mmHg 84%
    23:00 +23°C° 0.7 mm 4 mps 758 mmHg 86%

    30 May, Saturday

    Time Temperature Precipitation Wind Pressure Humidity
    00:00 +23°C° 0.7 mm 4 mps 758 mmHg 88%
    01:00 +24°C° 0.7 mm 3 mps 757 mmHg 90%
    02:00 +24°C° 0.3 mm 3 mps 757 mmHg 90%
    03:00 +22°C° 0.3 mm 3 mps 757 mmHg 90%
    04:00 +22°C° 0.3 mm 3 mps 757 mmHg 90%
    05:00 +22°C° 1 mm 3 mps 757 mmHg 90%
    06:00 +23°C° 1 mm 2 mps 757 mmHg 91%
    07:00 +23°C° 1 mm 2 mps 757 mmHg 91%
    08:00 +24°C° 0.2 mm 2 mps 757 mmHg 85%
    09:00 +25°C° 0.2 mm 2 mps 757 mmHg 80%
    10:00 +26°C° 0.2 mm 3 mps 757 mmHg 74%
    11:00 +26°C° 1.3 mm 2 mps 757 mmHg 75%
    12:00 +26°C° 1.3 mm 2 mps 756 mmHg 75%
    13:00 +26°C° 1.3 mm 2 mps 756 mmHg 75%
    14:00 +25°C° 3.2 mm 3 mps 756 mmHg 78%
    15:00 +24°C° 3.2 mm 3 mps 756 mmHg 82%
    16:00 +22°C° 3.2 mm 3 mps 755 mmHg 85%
    17:00 +21°C° 3.3 mm 3 mps 756 mmHg 83%
    18:00 +21°C° 3.3 mm 3 mps 756 mmHg 81%
    19:00 +20°C° 3.3 mm 3 mps 756 mmHg 78%
    20:00 +19°C° 0 mm 3 mps 756 mmHg 77%
    21:00 +19°C° 0 mm 3 mps 757 mmHg 76%
    22:00 +19°C° 0 mm 3 mps 757 mmHg 75%
    23:00 +18°C° 0 mm 4 mps 757 mmHg 73%

    31 May, Sunday

    Time Temperature Precipitation Wind Pressure Humidity
    00:00 +17°C° 0 mm 4 mps 757 mmHg 71%
    01:00 +16°C° 0 mm 5 mps 757 mmHg 69%
    02:00 +15°C° 0 mm 5 mps 757 mmHg 70%
    03:00 +15°C° 0 mm 4 mps 757 mmHg 71%
    04:00 +14°C° 0 mm 4 mps 757 mmHg 72%
    05:00 +15°C° 0 mm 4 mps 758 mmHg 69%
    06:00 +15°C° 0 mm 4 mps 758 mmHg 65%
    07:00 +17°C° 0 mm 4 mps 759 mmHg 62%
    08:00 +18°C° 0 mm 4 mps 759 mmHg 56%
    09:00 +19°C° 0 mm 4 mps 759 mmHg 49%
    10:00 +20°C° 0 mm 5 mps 759 mmHg 43%
    11:00 +21°C° 0 mm 5 mps 759 mmHg 37%
    12:00 +22°C° 0 mm 5 mps 759 mmHg 32%
    13:00 +22°C° 0 mm 6 mps 759 mmHg 26%
    14:00 +22°C° 0 mm 6 mps 759 mmHg 26%
    15:00 +22°C° 0 mm 6 mps 759 mmHg 25%
    16:00 +22°C° 0 mm 6 mps 758 mmHg 25%
    17:00 +21°C° 0 mm 6 mps 759 mmHg 28%
    18:00 +20°C° 0 mm 6 mps 760 mmHg 31%
    19:00 +19°C° 0 mm 5 mps 760 mmHg 34%
    20:00 +17°C° 0 mm 6 mps 761 mmHg 36%
    21:00 +16°C° 0 mm 6 mps 761 mmHg 39%
    22:00 +15°C° 0 mm 6 mps 762 mmHg 41%
    23:00 +14°C° 0 mm 6 mps 762 mmHg 43%
    Show more